Regional Weather Roundup
Issued by NWS

Home | Current Version | Previous Version | Graphics & Text | Print | Product List | Glossary On
Versions: 1 2 3 4 5 6 7 8 9 10 11 12 13 14 15 16 17 18 19 20 21 22 23 24 25 26 27 28 29 30 31 32 33 34 35 36 37 38 39 40 41 42 43 44 45 46 47 48 49 50
000
ASUS45 KTFX 122110
RWRMT
MONTANA REGIONAL WEATHER ROUNDUP
NATIONAL WEATHER SERVICE GREAT FALLS MT
200 PM MST FRI FEB 12 2016

NOTE: "FAIR" INDICATES FEW OR NO CLOUDS BELOW 12000 FEET WITH NO
SIGNIFICANT WEATHER AND/OR OBSTRUCTIONS TO VISIBILITY.

MTZ001>007-043-122200-
WEST OF THE DIVIDE

CITY           SKY/WX    TMP DP  RH WIND       PRES   REMARKS
KALISPELL      FOG       37  36  96 CALM      30.15F VSB 1
MISSOULA       CLOUDY    43  37  79 W5        30.17F
BUTTE          SUNNY     41  34  76 CALM      30.16F
MULLAN PASS    CLOUDY    36  35  96 SW6       30.14F WCI  31
ANACONDA         N/A     57  30  35 S12       30.13F
DEER LODGE       N/A     45  37  76 NE6       30.15F
HAMILTON         N/A     45  45 100 CALM      30.14F
$$

MTZ008-052>055-122200-
SOUTHWEST MONTANA

CITY           SKY/WX    TMP DP  RH WIND       PRES   REMARKS
BOZEMAN        PTSUNNY   41  34  76 E3        30.15F
DILLON         CLOUDY    50  32  50 SW16      30.16F
ENNIS          SUNNY     55  27  33 S20G26    30.21F
$$

MTZ009-010-012-014-046-048-049-054-122200-
EAST SLOPES AND CENTRAL MONTANA

CITY           SKY/WX    TMP DP  RH WIND       PRES   REMARKS
CUT BANK       MOSUNNY   43  32  65 SE15      30.04F
GREAT FALLS    CLOUDY    50  37  61 SW7       30.08F
MALMSTROM AFB  CLOUDY    45  39  80 NE2       30.09F
HELENA         CLOUDY    48  36  63 SE3       30.13F
CHOTEAU          N/A     46  34  61 SE6       30.07F
CONRAD           N/A     46  42  86 E7        30.08F
$$

MTZ011-013-016-021-045-047-050-051-122200-
NORTH CENTRAL MONTANA

CITY           SKY/WX    TMP DP  RH WIND       PRES   REMARKS
HAVRE          CLOUDY    31  25  78 NE17      30.15F WCI  19
LEWISTOWN      CLOUDY    40  32  73 E13       30.11F
N BAR RANCH    PTSUNNY   37  34  87 SE6       30.16F
CHINOOK          N/A     25  21  86 E20G25    30.20F WCI  11
$$

MTZ017>020-022>027-061-062-122200-
NORTHEAST MONTANA

CITY           SKY/WX    TMP DP  RH WIND       PRES   REMARKS
GLASGOW        CLOUDY    17  10  74 E20       30.33F WCI   1
JORDAN           N/A     29  26  89 E14       30.27F WCI  18
SIDNEY         CLOUDY    19   9  63 SE10      30.47F WCI   8
WOLF POINT     CLOUDY    17   7  64 E16       30.43F WCI   2
PLENTYWOOD       N/A     10  -2  56 E13       30.46F WCI  -5
POPLAR           N/A     16   7  67 E13       30.44F WCI   2
$$

MTZ028>42-056>058-122200-
SOUTHCENTRAL AND SOUTHEAST MONTANA

CITY           SKY/WX    TMP DP  RH WIND       PRES   REMARKS
BAKER          CLOUDY    25  16  68 E13       30.34F WCI  14
BILLINGS       CLOUDY    43  32  65 E7        30.18F
LIVINGSTON     CLOUDY    54  35  48 NW12      30.12F
MILES CITY     FLURRIES  32  26  78 NE14      30.29F WCI  22
FORSYTH          N/A     36  28  75 E15       30.25F WCI  26
LAUREL           N/A     44  31  60 N6        30.15F
ROUNDUP          N/A     41  30  65 CALM      30.08F
$$

REGIONAL REPORTS...DAKOTAS

CITY           SKY/WX    TMP DP  RH WIND       PRES   REMARKS
WILLISTON      CLOUDY    14   0  53 E7        30.51F WCI   4
MINOT          CLOUDY    10  -9  42 VRB3      30.57F
DICKINSON      CLOUDY    11  -1  58 SE8       30.44S WCI  -1
BEACH          CLOUDY    16  14  93 E13       30.42F WCI   2
CROSBY           N/A     10  -2  56 SE7       30.54F WCI   0
TIOGA            N/A      9  -2  61 SE7       30.54F WCI  -3
WATFORD CITY     N/A     16   0  48 SE6       30.50S WCI   7
BISMARCK       CLOUDY    14   0  53 NE6       30.58F WCI   5
GRAND FORKS    MOSUNNY    1  -9  62 NW15      30.67S WCI -18
FARGO          MOSUNNY    2  -9  60 N17       30.66R WCI -18
BUFFALO SD       N/A     24  17  74 SE15      30.29F WCI  11
RAPID CITY     FOG       25  24  96 E14       30.36F VSB 1/4 WCI  13
$$

REGIONAL REPORTS...WYOMING/IDAHO/WASHINGTON

CITY           SKY/WX    TMP DP  RH WIND       PRES   REMARKS
GILLETTE       CLOUDY    40  30  67 SE10      30.21F
SHERIDAN       PTSUNNY   48  30  49 SE9       30.18F
BUFFALO WY     CLOUDY    46  30  53 SE16      30.17F
CODY           SUNNY     54  25  32 SE7       30.14F
YELLOWSTONE LA   N/A     44  14  29 VRB5      30.29F
IDAHO FALLS    CLOUDY    32  26  78 N6        30.31F WCI  26
SALMON         CLOUDY    34  27  75 CALM      30.25F
BOISE          CLOUDY    47  34  60 NW7       30.29S
SPOKANE        PTSUNNY   47  41  80 S7        30.13F
$$

REGIONAL REPORTS...ALBERTA

CITY           SKY/WX    TMP DP  RH WIND       PRES   REMARKS
EDMONTON       CLOUDY    19  14  79 SE15      30.10F WCI   5
CALGARY        FOG       25  25 100 S12       29.99F VSB 1/4 WCI  14
LETHBRIDGE     CLOUDY    46  36  66 S6        30.00F
MEDICINE HAT   FLURRIES  36  32  87 E9        30.11F WCI  29
WATERTON GATE    N/A     54  32  43 SW23G36     N/A
MILK RIVER       N/A     39  34  81 S17G23      N/A  WCI  30
$$

REGIONAL REPORTS...SASKATCHEWAN

CITY           SKY/WX    TMP DP  RH WIND       PRES   REMARKS
SWIFT CURRENT  CLOUDY    12   7  79 SE23G29   30.25F WCI  -7
REGINA         PTSUNNY   10  -2  56 SE12G17   30.49F WCI  -4
SASKATOON      PTSUNNY    5  -4  66 E15       30.48F WCI -13
CYPRESS HILLS    N/A     21  18  86 SE5         N/A
VAL MARIE        N/A     18  12  79 SE17        N/A  WCI   2
ROCKGLEN         N/A     10  -4  52 SE16G22     N/A  WCI  -7
ASSINIBOIA       N/A     16   9  73 SE12G18     N/A  WCI   3
$$



USA.gov is the U.S. government's official web portal to all federal, state and local government web resources and services.